User: anonymous   Login
Location: Unspecified
(33.2407°S, 0.0000°E)
Time: 11:35:07
(UTC+00:00)
Language:

ESTCUBE 1 - Orbit

View from above orbital plane
View from above orbital plane
View from above satellite
View from above satellite

Ground track
Ground track

The orbit data is extracted from the following two-line orbital elements,

1 39161U 13021C   19201.80281063  .00000098  00000-0  23385-4 0  9990
2 39161  97.9869 286.1142 0008669 218.4316 141.6281 14.72211437333091
Epoch (UTC): 20 July 2019 19:16:02
Eccentricity: 0.0008669
inclination: 97.9869°
perigee height: 648 km
apogee height: 660 km
right ascension of ascending node: 286.1142°
argument of perigee: 218.4316°
revolutions per day: 14.72211437
mean anomaly at epoch: 141.6281°
orbit number at epoch: 33309

The dashed part of the orbit path shows where the satellite is in the earth's shadow,  

DLR